When you browse on this site, cookies collect data to enhance your experience and personalize the content and advertising you see.
Visit our Privacy Policy to learn more. By continuing to use the site, you agree to this use of cookies and data.
  • In Austria
  • List of Countries
  • For 7 days
  • Water Temperature
  • Weather Map
  • News
  • Weather Widgets
  • user-avatar
    Login

    Hourly Weather Oran

    Today, 5 December, Thursday

    Time Temperature Precipitation Wind Pressure Humidity
    00:00 +13°C° 0 mm 3 mps 748 mmHg 78%
    01:00 +13°C° 0 mm 3 mps 748 mmHg 78%
    02:00 +14°C° 0 mm 2 mps 748 mmHg 79%
    03:00 +13°C° 0 mm 1 mps 748 mmHg 79%
    04:00 +14°C° 0 mm 1 mps 748 mmHg 77%
    05:00 +14°C° 0 mm 1 mps 748 mmHg 75%
    06:00 +14°C° 0 mm 2 mps 749 mmHg 74%
    07:00 +15°C° 0 mm 2 mps 749 mmHg 72%
    08:00 +14°C° 0 mm 3 mps 749 mmHg 69%
    09:00 +16°C° 0 mm 3 mps 750 mmHg 66%
    10:00 +17°C° 0 mm 3 mps 750 mmHg 60%
    11:00 +18°C° 0 mm 3 mps 750 mmHg 53%
    12:00 +19°C° 0 mm 4 mps 750 mmHg 47%
    13:00 +19°C° 0 mm 4 mps 750 mmHg 48%
    14:00 +19°C° 0 mm 5 mps 750 mmHg 50%
    15:00 +19°C° 0 mm 6 mps 750 mmHg 51%
    16:00 +17°C° 0 mm 6 mps 750 mmHg 55%
    17:00 +16°C° 0 mm 6 mps 750 mmHg 59%
    18:00 +16°C° 0 mm 6 mps 751 mmHg 63%
    19:00 +15°C° 0 mm 5 mps 751 mmHg 60%
    20:00 +15°C° 0 mm 5 mps 752 mmHg 57%
    21:00 +15°C° 0 mm 4 mps 752 mmHg 53%
    22:00 +15°C° 0 mm 4 mps 752 mmHg 53%
    23:00 +15°C° 0 mm 4 mps 752 mmHg 52%

    Tomorrow, 6 December, Friday

    Time Temperature Precipitation Wind Pressure Humidity
    00:00 +15°C° 0 mm 4 mps 752 mmHg 51%
    01:00 +14°C° 0 mm 4 mps 752 mmHg 51%
    02:00 +14°C° 0 mm 4 mps 752 mmHg 52%
    03:00 +14°C° 0 mm 5 mps 752 mmHg 52%
    04:00 +14°C° 0 mm 5 mps 752 mmHg 52%
    05:00 +14°C° 0 mm 5 mps 752 mmHg 52%
    06:00 +14°C° 0 mm 5 mps 753 mmHg 53%
    07:00 +14°C° 0 mm 5 mps 753 mmHg 51%
    08:00 +15°C° 0 mm 5 mps 753 mmHg 50%
    09:00 +16°C° 0 mm 5 mps 753 mmHg 49%
    10:00 +17°C° 0 mm 5 mps 753 mmHg 45%
    11:00 +20°C° 0 mm 5 mps 753 mmHg 40%
    12:00 +22°C° 0 mm 4 mps 753 mmHg 36%
    13:00 +22°C° 0 mm 4 mps 753 mmHg 36%
    14:00 +22°C° 0 mm 3 mps 752 mmHg 36%
    15:00 +23°C° 0 mm 2 mps 752 mmHg 36%
    16:00 +20°C° 0 mm 3 mps 752 mmHg 42%
    17:00 +19°C° 0 mm 3 mps 753 mmHg 47%
    18:00 +17°C° 0 mm 3 mps 753 mmHg 52%
    19:00 +17°C° 0 mm 3 mps 753 mmHg 52%
    20:00 +17°C° 0 mm 3 mps 753 mmHg 51%
    21:00 +16°C° 0 mm 3 mps 754 mmHg 51%
    22:00 +16°C° 0 mm 3 mps 754 mmHg 52%
    23:00 +16°C° 0 mm 3 mps 754 mmHg 53%

    Day after tomorrow, 7 December, Saturday

    Time Temperature Precipitation Wind Pressure Humidity
    00:00 +15°C° 0 mm 2 mps 754 mmHg 54%
    01:00 +15°C° 0 mm 2 mps 754 mmHg 55%
    02:00 +15°C° 0 mm 2 mps 754 mmHg 55%
    03:00 +14°C° 0 mm 1 mps 753 mmHg 56%
    04:00 +14°C° 0 mm 2 mps 754 mmHg 58%
    05:00 +15°C° 0 mm 2 mps 754 mmHg 59%
    06:00 +15°C° 0 mm 2 mps 754 mmHg 61%
    07:00 +15°C° 0 mm 2 mps 754 mmHg 60%
    08:00 +16°C° 0 mm 2 mps 755 mmHg 60%
    09:00 +17°C° 0 mm 2 mps 755 mmHg 59%
    10:00 +18°C° 0 mm 2 mps 755 mmHg 55%
    11:00 +19°C° 0 mm 2 mps 755 mmHg 50%
    12:00 +19°C° 0 mm 2 mps 755 mmHg 46%
    13:00 +19°C° 0 mm 2 mps 755 mmHg 46%
    14:00 +19°C° 0 mm 2 mps 755 mmHg 46%
    15:00 +19°C° 0 mm 2 mps 755 mmHg 47%
    16:00 +18°C° 0 mm 2 mps 755 mmHg 52%
    17:00 +18°C° 0 mm 1 mps 755 mmHg 58%
    18:00 +16°C° 0 mm 1 mps 756 mmHg 64%
    19:00 +15°C° 0 mm 1 mps 756 mmHg 65%
    20:00 +15°C° 0 mm 1 mps 757 mmHg 66%
    21:00 +15°C° 0 mm 1 mps 757 mmHg 67%
    22:00 +15°C° 0 mm 1 mps 758 mmHg 70%
    23:00 +14°C° 0 mm 1 mps 758 mmHg 72%

    8 December, Sunday

    Time Temperature Precipitation Wind Pressure Humidity
    00:00 +14°C° 0 mm 2 mps 758 mmHg 74%
    01:00 +14°C° 0 mm 2 mps 758 mmHg 77%
    02:00 +14°C° 0 mm 2 mps 758 mmHg 80%
    03:00 +14°C° 0 mm 2 mps 758 mmHg 83%
    04:00 +13°C° 0 mm 2 mps 758 mmHg 85%
    05:00 +13°C° 0 mm 2 mps 758 mmHg 87%
    06:00 +13°C° 0 mm 2 mps 758 mmHg 89%
    07:00 +14°C° 0 mm 2 mps 759 mmHg 87%
    08:00 +15°C° 0 mm 2 mps 759 mmHg 85%
    09:00 +15°C° 0 mm 2 mps 760 mmHg 83%
    10:00 +16°C° 0 mm 2 mps 760 mmHg 78%
    11:00 +17°C° 0 mm 2 mps 759 mmHg 73%
    12:00 +18°C° 0 mm 3 mps 759 mmHg 68%
    13:00 +18°C° 0 mm 3 mps 759 mmHg 67%
    14:00 +18°C° 0 mm 3 mps 759 mmHg 66%
    15:00 +18°C° 0 mm 3 mps 759 mmHg 65%
    16:00 +17°C° 0 mm 3 mps 759 mmHg 70%
    17:00 +16°C° 0 mm 3 mps 759 mmHg 75%
    18:00 +14°C° 0 mm 3 mps 759 mmHg 81%
    19:00 +14°C° 0 mm 3 mps 759 mmHg 80%
    20:00 +14°C° 0 mm 3 mps 760 mmHg 80%
    21:00 +13°C° 0 mm 3 mps 760 mmHg 79%
    22:00 +13°C° 0 mm 3 mps 760 mmHg 78%
    23:00 +13°C° 0 mm 3 mps 760 mmHg 77%

    9 December, Monday

    Time Temperature Precipitation Wind Pressure Humidity
    00:00 +13°C° 0 mm 3 mps 760 mmHg 75%
    01:00 +13°C° 0 mm 3 mps 759 mmHg 74%
    02:00 +13°C° 0 mm 3 mps 759 mmHg 73%
    03:00 +13°C° 0 mm 3 mps 759 mmHg 72%
    04:00 +13°C° 0 mm 3 mps 759 mmHg 71%
    05:00 +12°C° 0 mm 3 mps 759 mmHg 70%
    06:00 +12°C° 0 mm 3 mps 759 mmHg 68%
    07:00 +15°C° 0 mm 2 mps 759 mmHg 64%
    08:00 +16°C° 0 mm 2 mps 760 mmHg 59%
    09:00 +17°C° 0 mm 2 mps 760 mmHg 54%
    10:00 +18°C° 0 mm 3 mps 760 mmHg 50%
    11:00 +19°C° 0 mm 3 mps 760 mmHg 46%
    12:00 +20°C° 0 mm 3 mps 760 mmHg 41%
    13:00 +20°C° 0 mm 3 mps 759 mmHg 42%
    14:00 +20°C° 0 mm 3 mps 759 mmHg 43%
    15:00 +19°C° 0 mm 3 mps 759 mmHg 45%
    16:00 +18°C° 0 mm 3 mps 759 mmHg 50%
    17:00 +17°C° 0 mm 2 mps 759 mmHg 56%
    18:00 +16°C° 0 mm 1 mps 759 mmHg 62%
    19:00 +16°C° 0 mm 1 mps 760 mmHg 62%
    20:00 +16°C° 0 mm 1 mps 760 mmHg 61%
    21:00 +16°C° 0 mm 1 mps 761 mmHg 61%
    22:00 +16°C° 0 mm 1 mps 760 mmHg 61%
    23:00 +15°C° 0 mm 1 mps 760 mmHg 60%

    10 December, Tuesday

    Time Temperature Precipitation Wind Pressure Humidity
    00:00 +15°C° 0 mm 1 mps 760 mmHg 60%
    01:00 +15°C° 0 mm 1 mps 760 mmHg 61%
    02:00 +13°C° 0 mm 0 mps 760 mmHg 61%
    03:00 +13°C° 0 mm 0 mps 760 mmHg 62%
    04:00 +13°C° 0 mm 0 mps 760 mmHg 62%
    05:00 +13°C° 0 mm 0 mps 760 mmHg 62%
    06:00 +12°C° 0 mm 0 mps 760 mmHg 62%
    07:00 +14°C° 0 mm 0 mps 760 mmHg 57%
    08:00 +15°C° 0 mm 0 mps 760 mmHg 52%
    09:00 +17°C° 0 mm 0 mps 761 mmHg 47%
    10:00 +18°C° 0 mm 0 mps 761 mmHg 44%
    11:00 +19°C° 0 mm 0 mps 760 mmHg 41%
    12:00 +19°C° 0 mm 0 mps 760 mmHg 38%
    13:00 +20°C° 0 mm 0 mps 759 mmHg 38%
    14:00 +22°C° 0 mm 1 mps 759 mmHg 38%
    15:00 +22°C° 0 mm 1 mps 759 mmHg 39%
    16:00 +21°C° 0 mm 1 mps 758 mmHg 44%
    17:00 +19°C° 0 mm 1 mps 758 mmHg 49%
    18:00 +18°C° 0 mm 1 mps 758 mmHg 55%
    19:00 +18°C° 0 mm 1 mps 758 mmHg 55%
    20:00 +18°C° 0 mm 1 mps 758 mmHg 55%
    21:00 +16°C° 0 mm 1 mps 758 mmHg 55%
    22:00 +16°C° 0 mm 1 mps 758 mmHg 55%
    23:00 +16°C° 0 mm 1 mps 758 mmHg 56%
    Show more